Weather History for KHYR - October, 2012

Change the Weather History Date:

Tuesday, October 9, 2012

  Actual Average Record
Temperature  
Mean Temperature 40 °F -  
Max Temperature 48 °F 57 °F 80 °F (2011)
Min Temperature 35 °F 30 °F 19 °F (2000)
Degree Days  
Heating Degree Days 24    
Moisture  
Dew Point 32 °F    
Average Humidity 75    
Maximum Humidity 93    
Minimum Humidity 46    
Precipitation  
Precipitation 0.04 in - - ()
Sea Level Pressure  
Sea Level Pressure 29.78 in    
Wind  
Wind Speed 3 mph (West)    
Max Wind Speed 13 mph    
Max Gust Speed 25 mph    
Visibility 10 miles    
Events Rain    
Averages and records for this station are not official NWS values.
T = Trace of Precipitation, MM = Missing Value Source: NWS Daily Summary

Daily Weather History Graph

Daily Weather History Graph

Search for Another Location

Airport or City:

Trip Planner

Search our weather history database for the weather conditions in past years. The results will help you decide how hot, cold, wet, or windy it might be!

Date:

Astronomy

Oct. 09, 2012 Rise Set
Actual Time 7:15 AM CDT 6:29 PM CDT
Civil Twilight 6:45 AM CDT 6:59 PM CDT
Nautical Twilight 6:10 AM CDT 7:34 PM CDT
Astronomical Twilight 5:35 AM CDT 8:08 PM CDT
Moon 12:33 AM CDT (10/9) 3:14 PM CDT (10/9)
Length of Visible Light 12h 14m
Length of Day
11h 14m
Last Quarter, 36% of the Moon is Illuminated
Oct 9
Last Quarter
Oct 15
New
Oct 21
First Quarter
Oct 29
Full
Nov 6
Last Quarter

Hourly Weather History & Observations

Time (CDT) Temp. Windchill Dew Point Humidity Pressure Visibility Wind Dir Wind Speed Gust Speed Precip Events Conditions
12:53 AM 43.0 °F - 37.9 °F 82% 29.72 in 10.0 mi Calm Calm - N/A   Clear
1:53 AM 41.0 °F - 37.0 °F 86% 29.73 in 10.0 mi Calm Calm - N/A   Clear
3:53 AM 35.1 °F - 32.0 °F 89% 29.72 in 8.0 mi Calm Calm - N/A   Clear
4:53 AM 37.0 °F - 33.1 °F 86% 29.73 in 10.0 mi Calm Calm - N/A   Partly Cloudy
5:53 AM 39.9 °F - 36.0 °F 86% 29.73 in 10.0 mi Calm Calm - N/A   Clear
6:53 AM 37.0 °F - 35.1 °F 93% 29.73 in 10.0 mi Calm Calm - N/A   Overcast
7:53 AM 41.0 °F 39.0 °F 37.0 °F 86% 29.72 in 10.0 mi SSW 3.5 mph - N/A   Overcast
8:53 AM 43.0 °F 41.3 °F 37.0 °F 80% 29.74 in 10.0 mi Variable 3.5 mph - N/A   Overcast
9:53 AM 42.1 °F 37.7 °F 36.0 °F 79% 29.75 in 10.0 mi WSW 6.9 mph - 0.00 in Rain Light Rain
10:53 AM 41.0 °F 37.1 °F 35.1 °F 79% 29.74 in 10.0 mi Variable 5.8 mph - 0.00 in Rain Light Rain
11:53 AM 42.1 °F - 35.1 °F 76% 29.74 in 10.0 mi Calm Calm - 0.00 in   Mostly Cloudy
12:53 PM 46.0 °F 43.1 °F 32.0 °F 58% 29.72 in 10.0 mi Variable 5.8 mph 19.6 mph N/A   Scattered Clouds
1:53 PM 46.0 °F 40.2 °F 26.1 °F 46% 29.72 in 10.0 mi West 12.7 mph 25.3 mph N/A   Overcast
2:53 PM 45.0 °F 41.8 °F 26.1 °F 48% 29.73 in 10.0 mi West 5.8 mph 18.4 mph N/A   Overcast
3:53 PM 45.0 °F 40.1 °F 27.0 °F 49% 29.75 in 10.0 mi West 9.2 mph 20.7 mph N/A   Overcast
4:53 PM 44.1 °F 40.8 °F 28.9 °F 55% 29.77 in 10.0 mi Variable 5.8 mph - N/A   Overcast
5:53 PM 44.1 °F 40.1 °F 28.9 °F 55% 29.78 in 10.0 mi West 6.9 mph - N/A   Overcast
6:53 PM 41.0 °F 36.4 °F 30.9 °F 67% 29.82 in 10.0 mi WNW 6.9 mph - 0.00 in   Overcast
7:53 PM 37.0 °F 31.0 °F 33.1 °F 86% 29.86 in 10.0 mi WNW 8.1 mph - 0.04 in   Overcast
8:04 PM 37.4 °F 32.1 °F 32.0 °F 81% 29.82 in 6.0 mi Variable 6.9 mph 19.6 mph 0.00 in Rain Light Rain
8:25 PM 37.4 °F 34.9 °F 33.8 °F 87% 29.83 in 10.0 mi Variable 3.5 mph - 0.00 in   Overcast
8:53 PM 37.0 °F - 34.0 °F 89% 29.87 in 10.0 mi Calm Calm - 0.00 in   Overcast
9:53 PM 37.0 °F 31.6 °F 30.9 °F 79% 29.89 in 10.0 mi Variable 6.9 mph - N/A   Overcast
10:04 PM 37.4 °F 34.9 °F 30.2 °F 75% 29.86 in 10.0 mi Variable 3.5 mph - N/A   Overcast
10:35 PM 37.4 °F 33.8 °F 30.2 °F 75% 29.87 in 10.0 mi Variable 4.6 mph - N/A   Overcast
10:53 PM 37.0 °F 31.0 °F 28.9 °F 73% 29.91 in 10.0 mi NW 8.1 mph - N/A   Overcast
11:53 PM 35.1 °F 30.1 °F 28.9 °F 78% 29.92 in 10.0 mi Variable 5.8 mph - N/A   Mostly Cloudy